Regional Weather Roundup
Issued by NWS Newport/Morehead, NC

Current Version | Previous Version | Graphics & Text | Print | Product List | Glossary Off
Versions: 1 2 3 4 5 6 7 8 9 10 11 12 13 14 15 16 17 18 19 20 21 22 23 24 25 26 27 28 29 30 31 32 33 34 35 36 37 38 39 40 41 42 43 44 45 46 47 48 49 50

000
ASUS42 KMHX 302010
RWRMHX
WEATHER ROUNDUP FOR EASTERN NORTH CAROLINA
NATIONAL WEATHER SERVICE NEWPORT/MOREHEAD CITY NC
400 PM EDT THU OCT 30 2014

NOTE: "FAIR" INDICATES FEW OR NO CLOUDS BELOW 12,000 FEET
WITH NO SIGNIFICANT WEATHER AND/OR OBSTRUCTIONS TO VISIBILITY

NCZ015>017-031-032-045>047-102-103-302100-
NORTH COAST

CITY           SKY/WX    TMP DP  RH WIND       PRES   REMARKS
EDENTON        PTSUNNY   66  48  50 CALM      29.97S
ELIZABETH CITY MOSUNNY   67  46  47 NE10      29.98R
KITTY HAWK     PTCLDY    64  51  61 N8        29.96S
MANTEO         PTSUNNY   63  50  63 N13       29.97S

$$

NCZ045>047-081-094-103-104-302100-
CENTRAL COAST

CITY           SKY/WX    TMP DP  RH WIND       PRES   REMARKS
FRISCO         SUNNY     65  52  62 N9G16     29.95R
SWANQUARTER      N/A     64 N/A N/A NE12      29.91S

$$

NCZ095-097-098-100-101-302100-
SOUTHERN COAST

CITY           SKY/WX    TMP DP  RH WIND       PRES   REMARKS
BEAUFORT       MOSUNNY   67  54  63 NE10      29.95S
CEDAR ISLAND     N/A     66 N/A N/A NE12G21   30.00S
JACKSONVILLE   MOSUNNY   68  51  54 VRB6      29.95F
PINEY ISLAND   CLOUDY    67  53  61 NE13      29.96S
WILMINGTON     PTSUNNY   70  51  51 N10       29.94S


$$

NCZ011>013-027>030-043-044-078>080-089-090>093-098-302100-
COASTAL PLAIN

CITY           SKY/WX    TMP DP  RH WIND       PRES   REMARKS
AHOSKIE        NOT AVBL
CLINTON        SUNNY     69  47  45 NE5       29.96S
ELIZABETHTOWN  SUNNY     70  47  44 E3        29.96S
GOLDSBORO      SUNNY     68  50  53 N7        29.95S
GREENVILLE     MOSUNNY   68  46  45 NE8       29.99S
HAVELOCK       CLOUDY    66  52  60 NE12      29.97F
KENANSVILLE    SUNNY     68  45  43 N5        29.97S
KINSTON        SUNNY     68  45  42 NE8       29.97S
NEW BERN       PTSUNNY   67  51  56 E8        29.97S
RICHLANDS      PTSUNNY   66  48  52 NE10      29.96S
ROCKY MOUNT    SUNNY     67  43  41 VRB6      29.97F
WASHINGTON     SUNNY     65  47  52 N6        29.97S
WHITEVILLE     SUNNY     69  48  47 NE7       29.95S

$$

AMZ130-135-150-152-154-156-158-170-250-252-270-ANZ085-086-088-633-658-670-302100-
MARINE OBSERVATIONS

STATION/POSITION TIME  TEMP    WIND        PRES    WAVE   SWELL
                       AIR SEA DIR/SP/G            HT/PER HT/PER
                 (UTC) (F)     (DEG/KT/KT) (MB)    (FT/S) (FT/S)
CHESAPEAKE LIGHT 1900   60                 1015.8
64 E VA BEACH    2000   62 67   10/ 14/ 16 1014.1    3/ 6   2/ 9
DUCK             2000   62 67   10/ 12/ 16 1014.1
2 E DUCK         NOT AVBL
10 NE DUCK       1900      67                N/A     4/ 5
OREGON INLET     2000   64 67   10/ 11/ 15 1014.3
13E OREGON INLT  1900      70                N/A     4/ 5
HATTERAS CG      2000   64 69   20/ 16/ 19 1014.5
DIAMOND BUOY     2000   67     360/ 17/ 23 1013.1    4/ 5   2/ 8
17 S OCRACOKE    NOT AVBL
CAPE LOOKOUT     1900   65      40/ 19/ 21 1014.1
BEAUFORT LAB     2000   65 70   10/ 12/ 15 1013.5
30 SE NEW RIVER  1900   66 74   40/ 17/ 21 1013.0
5 SE WRIGHTSVLE  1900   63 71   60/ 12/ 14   N/A
225 S CAPE HAT   1906   74 77   10/  8/ 10 1012.8    3/ 5   2/ 5
41 SE CHARLESTON 2000   70 77   10/ 16/ 19 1012.1    3/ 4

$$



USA.gov is the U.S. government's official web portal to all federal, state and local government web resources and services.